Regional Weather Roundup
Issued by NWS Wakefield, VA

Home | Current Version | Previous Version | Text Only | Print | Product List | Glossary On
Versions: 1 2 3 4 5 6 7 8 9 10 11 12 13 14 15 16 17 18 19 20 21 22 23 24 25 26 27 28 29 30 31 32 33 34 35 36 37 38 39 40 41 42 43 44 45 46 47 48 49 50
000
ASUS41 KAKQ 260014
RWRAKQ

REGIONAL WEATHER ROUNDUP
NATIONAL WEATHER SERVICE WAKEFIELD VA
800 PM EDT MON MAY 25 2015

Note: "fair" indicates few or no clouds below 12,000 feet with no
significant weather and/or obstructions to visibility. * = Denotes
station may not report precipitation (e.g., rain,snow,etc.),
thunder or fog.

VAZ042-051-052>054-056-260100-
NORTHERN VIRGINIA

CITY           SKY/WX    TMP DP  RH WIND       PRES   REMARKS
WASH NATIONAL  MOCLDY    81  58  45 S13       30.20R
DULLES         MOCLDY    77  57  50 S9        30.19S
FORT BELVOIR   CLEAR     78  60  53 VRB5      30.20R
QUANTICO       CLEAR     78  63  59 SW6       30.21R
FREDERICKSBRG* CLEAR     82  58  45 S6        30.19S
STAFFORD*      CLEAR     79  54  42 S6        30.24S
WARRENTON      CLEAR     78  61  55 S5        30.20S
CULPEPER*      CLEAR     78  58  50 S5        30.20S
MANASSAS*      NOT AVBL
LEESBURG*      CLEAR     81  61  50 S14G21    30.20S
WINCHESTER     CLEAR     79  52  38 S7        30.17S
FRONT ROYAL*   FAIR      77  59  53 S7        30.16S
LURAY*         FAIR      79  59  50 S8        30.19S
$$

VAZ048-049-060>072-079>083-260100-
CENTRAL AND SOUTH CENTRAL VIRGINIA

CITY           SKY/WX    TMP DP  RH WIND       PRES   REMARKS
RICHMOND       PTCLDY    77  57  50 S7        30.22S
CHESTERFIELD*  NOT AVBL
PETERSBURG*    CLEAR     78  54  43 CALM      30.24S
HANOVER        CLEAR     78  56  46 S9        30.23S
TAPPAHANNOCK*  CLEAR     79  51  37 CALM      30.23S
QUINTON*       FAIR      79  58  48 S3        30.23S
CHARLOTTSVILLE CLEAR     76  55  48 S8        30.20S
GORDONSVILLE*  FAIR      77  57  50 S3        30.20S
ORANGE*        CLEAR     79  57  47 CALM      30.22S
LOUISA*        CLEAR     79  57  47 S3        30.21R
BUMPASS*       FAIR      77  57  50 S3        30.21S
FARMVILLE*     CLEAR     76  56  49 S5        30.21S
CREWE*         FAIR      76  56  49 CALM      30.23S
FORT PICKETT*  NOT AVBL
CHASE CITY*    FAIR      80  59  49 CALM      30.23F
CLARKSVILLE*   FAIR      77  57  50 CALM      30.23S
SOUTH HILL*    CLEAR     76  57  51 CALM      30.30S
LAWRENCEVILLE* FAIR      75  57  53 CALM      30.24S
EMPORIA*       CLEAR     77  55  47 SE3       30.26S
$$

VAZ088>098-260100-
SOUTHEAST VIRGINIA

CITY           SKY/WX    TMP DP  RH WIND       PRES   REMARKS
NORFOLK        CLEAR     76  51  41 S10       30.26S
VIRGINIA BEACH MOCLDY    74  61  63 S10       30.27S
NORFOLK NAVAL  PTCLDY    82  53  36 S9        30.27S
WEST POINT*    CLEAR     80  57  45 S6        30.25S
SALUDA*        FAIR      73  60  65 SE10G16   30.24S
NEWPORT NEWS   CLEAR     82  57  42 S12       30.25S
LANGLEY AFB    CLEAR     77  58  50 S8        30.24S
FORT EUSTIS    CLEAR     77  57  50 S8        30.23S
WILLIAMSBURG*  CLEAR     81  59  47 S8        30.25S
HR EXEC AP*    FAIR      77  54  44 S7        30.27F
FRANKLIN*      CLEAR     76  55  49 S10       30.26S
WAKEFIELD      CLEAR     78  57  48 CALM      30.24F
$$

VAZ020-022-025-037-045-260100-
WEST CENTRAL AND SOUTHWEST VIRGINIA

CITY           SKY/WX    TMP DP  RH WIND       PRES   REMARKS
STAUNTON*      CLEAR     76  55  47 S6        30.23S
WAYNESBORO*    FAIR      74  55  50 S8        30.23F
HOT SPRINGS VA CLEAR     65  55  68 S9        30.32S
LYNCHBURG      CLEAR     73  57  57 S8        30.25R
DANVILLE       CLEAR     78  57  48 S3        30.24R
SOUTH BOSTON*  FAIR      77  56  48 MISG      30.23S
MARTINSVILLE   CLEAR     77  56  49 CALM      30.26S
ROANOKE        PTCLDY    77  56  48 S12       30.25R
BLACKSBURG     CLEAR     72  55  55 S6        30.30R
DUBLIN*        CLEAR     74  57  55 S7        30.28S
MARION*        CLEAR     73  56  55 E5        30.30R
HILLSVILLE*    CLEAR     69  56  62 S7        30.31R
RICHLANDS*     FAIR      75  57  53 S3        30.26R
WISE*          CLOUDY    77  55  47 SW5       30.27R
ABINGDON*      MOCLDY    78  57  48 S3        30.23S
$$

MDZ021>025-VAZ099-100-260100-
SOUTHERN MARYLAND AND THE DELMARVA PENINSULA

CITY           SKY/WX    TMP DP  RH WIND       PRES   REMARKS
PATUXENT RIVER CLEAR     74  59  59 S12G21    30.23R
BAY BRIDGE APT   N/A    N/A N/A N/A S14G20    30.21S
LEONARDTOWN    CLEAR     72  57  60 SE7       30.24S
DOVER          CLEAR     77  62  59 S13G21    30.19F
GEORGETOWN     CLEAR     73  54  51 S13       30.25S
EASTON         PTCLDY    77  57  50 S15G23    30.26S
CAMBRIDGE      CLEAR     77  57  50 S10       30.23S
SALISBURY      CLEAR     71  54  54 S9        30.26S
OCEAN CITY     PTCLDY    67  59  75 S8        30.27F
WALLOPS ISLAND CLEAR     67  58  72 S17       30.29S
ACCOMACK*      CLEAR     70  59  68 S17G23    30.27F
$$

NCZ012>017-030>032-260100-
NORTH CENTRAL AND EASTERN NORTH CAROLINA

CITY           SKY/WX    TMP DP  RH WIND       PRES   REMARKS
ROANOKE RAPIDS FAIR      77  55  47 S5        30.25S
RALEIGH        PTCLDY    78  54  43 S6        30.25S
ELIZABETH CITY CLEAR     73  58  59 S9        30.29S
AHOSKIE*       CLEAR     74  59  59 SE7       30.26S
EDENTON*       CLEAR     74  61  62 S14       30.29S
CURRITUCK*     CLEAR     75  54  49 S5        30.30S
KILL DEVIL HLS CLEAR     73  60  63 S6        30.30F
MANTEO         PTCLDY    73  61  65 S16       30.31F
CAPE HATTERAS  CLEAR     73  61  65 S9        30.32S
TARBORO*       FAIR      79  56  44 S7        30.27S
GOLDSBORO      NOT AVBL
WASHINGTON     CLEAR     75  59  57 S8        30.29S
GREENVILLE     CLEAR     77  59  53 S14       30.28S
NEW BERN       CLEAR     74  60  61 S7        30.32R
WILMINGTON     PTCLDY    75  62  64 SE7       30.29S
$$

VAZ048-260100-
ELSEWHERE

CITY           SKY/WX    TMP DP  RH WIND       PRES   REMARKS
HARRISBURG PA  PTCLDY    80  59  48 S9        30.14S
BALTIMORE      PTCLDY    76  62  62 SE8       30.19R
ANNAPOLIS      CLEAR     73  59  61 S16G26    30.20F
ANDREWS AFB    CLEAR     77  60  54 S8        30.20R
PHILADELPHIA   PTCLDY    80  57  45 S17       30.20R
HENDERSON NC   CLEAR     76  51  41 S5        30.25S
GREENSBORO     PTCLDY    77  55  46 S7        30.25R
ROCKY MOUNT    CLEAR     79  57  46 S5        30.25S
$$

VAZ100-260100-
MARINE

STATION/POSITION TIME  TEMP    WIND        PRES    WAVE   SWELL
                       AIR SEA DIR/SP/G            HT/PER HT/PER
                 (UTC) (F)     (DEG/KT/KT) (MB)    (FT/S) (FT/S)
BRANDYWINE LGT   2300   68 64  190/ 15/ 18 1024.0F
CAPE MAY NJ      2300   69 68  170/ 14/ 20 1023.9R
LEWES DE         2300   77 64  190/  7/ 12 1024.1R
15NM E FENWICK I 2350   64 61              1025.0F   2/ 4
OCEAN-CITY-INLET 2300   65 62  210/ 10/ 12 1025.2F
WACHAPREAGUE VA  2300   71 75  190/ 14/ 19 1025.3F
THOMAS POINT MD  0000   71 67  170/ 23/ 24 1023.1S
GOOSES REEF MD   0000   70 67  180/ 19/ 21 1024.0F   2/ 3
SOLOMONS ISLAND  2300      71                N/A
BISHOPS HEAD MD  2300   73 75  160/ 19/ 21 1023.7F
PINEY POINT MD   2300          170/ 15/ 17   N/A
CAMBRIDGE MD     2300   77 70  170/  7/ 16 1023.7S
LEWISETTA VA     2300   75 71              1023.4F
RAPPAHANNOCK LGT 2300          150/ 19/ 20 1025.1F
STINGRAY PT      0000   71 71  170/ 19/ 23 1023.9F   3/ 3
YORK RVR RNG VA  2300   72     150/ 19/ 22 1023.6F
YORKTOWN VA      2300   81 71  210/  8/ 12 1023.9F
JAMESTOWN VA     0000   78 74  180/  8/ 10 1023.0S
DOMINION TERM VA 2300   78     180/ 12/ 15 1024.5F
KIPTOPEKE VA     2300      75  170/ 20/ 24   N/A
CHES BAY BRIDGE  2300   75 68  130/ 13/ 18 1024.6S
CAPE HENRY VA    2300   72     140/ 12/ 16 1024.0S
CHESAPEAKE LGHT  2300   69     160/ 21/ 23 1026.0F
WILLOUBY STN VA  2300   79     180/ 17/ 19 1025.2S
CAPE HENRY BUOY  2328      67                N/A     2/ 3
1ST LANDING BUOY 0000      69              1024.6F
CAPE CHARLES BUO 2326      67                N/A     2/ 3   2/12
OFFSHORE WE BUOY 2311      66                N/A     2/ 3   2/ 9
64NM E OF VA BCH 2350   67 65  150/  8/  8 1026.5F   1/ 7   2/ 7
DUCK PIER NC     2300   73 65  160/ 13/ 17 1025.1S
44100 DUCK FRF   2324      63                N/A     2/ 8
44056 DUCK FRF   2311      66                N/A     1/ 9
OREGON INLET NC  2300   74 77  180/ 14/ 16 1026.6S
HATTERAS NC      2300   75 76  160/  8/ 10 1026.3R
DIAMOND SHLS NC  2350   75 77  160/ 14/ 17 1026.8R   2/ 7   2/ 7
CAPE LOOKOUT NC  0000   74     160/  8/  9 1026.1F
$$


USA.gov is the U.S. government's official web portal to all federal, state and local government web resources and services.